Regional Weather Roundup
Issued by NWS Charleston, SC

Current Version | Previous Version | Graphics & Text | Print | Product List | Glossary On
Versions: 1 2 3 4 5 6 7 8 9 10 11 12 13 14 15 16 17 18 19 20 21 22 23 24 25 26 27 28 29 30 31 32 33 34 35 36 37 38 39 40 41 42 43 44 45 46 47 48 49 50
000 ASUS42 KCHS 280612 RWRCHS REGIONAL WEATHER ROUNDUP NATIONAL WEATHER SERVICE CHARLESTON SC 200 AM EDT FRI AUG 28 2015 NOTE: "FAIR" INDICATES FEW OR NO CLOUDS BELOW 12,000 FEET WITH NO SIGNIFICANT WEATHER AND/OR OBSTRUCTIONS TO VISIBILITY. NOT ALL STATIONS ARE QUALITY CONTROLLED BY THE NATIONAL WEATHER SERVICE. USE DATA WITH CAUTION...ESPECIALLY DEWPOINT OBSERVATIONS. SCZ027-030-031-034>040-042>050-280700- ...SOUTHEAST SOUTH CAROLINA... CITY SKY/WX TMP DP RH WIND PRES REMARKS N CHARLESTON FAIR 73 71 93 N6 30.05F 6HR MIN TEMP: 73; 6HR MAX TEMP: 75; WATERFRONT PRK N/A 76 74 93 N7 30.02S MOUNT PLEASANT FAIR 73 72 94 N5 30.05S FOG JOHNS ISLAND FAIR 73 73 100 N7 30.04F PINOPOLIS N/A 75 72 88 E13 29.98S MONCKS CORNER FAIR 73 70 88 CALM 30.05F SUMMERVILLE FAIR 72 72 100 CALM 30.07S BEAUFORT MCAS FAIR 74 72 93 N7 30.04F 6HR MIN TEMP: 74; 6HR MAX TEMP: 80; BEAUFORT ARPT FAIR 75 73 94 N8 30.04S HILTON HEAD IS FAIR 79 75 89 N6 30.04S WALTERBORO FAIR 73 70 88 CALM 30.06 ALLENDALE FAIR 73 72 94 CALM 30.05F ...SOUTHERN MIDLANDS AND PEE DEE... CITY SKY/WX TMP DP RH WIND PRES REMARKS GEORGETOWN NOT AVBL KINGSTREE NOT AVBL ORANGEBURG CLOUDY 73 69 87 NE6 30.08F 6HR MIN TEMP: 73; 6HR MAX TEMP: 80; BARNWELL FAIR 73 72 94 NE6 30.08S AIKEN FAIR 70 64 83 E6 30.11F MANNING FAIR 70 68 94 N3 30.08S COLUMBIA FAIR 74 66 76 E7 30.08F 6HR MIN TEMP: 74; 6HR MAX TEMP: 84; SUMTER FAIR 69 66 90 NE7 30.06F 6HR MIN TEMP: 69; 6HR MAX TEMP: 79; FLORENCE FAIR 70 65 84 NE6 30.09F 6HR MIN TEMP: 70; 6HR MAX TEMP: 77; MYRTLE BEACH NOT AVBL N MYRTLE BEACH MOCLDY 71 68 90 NE8 30.06F 6HR MIN TEMP: 71; 6HR MAX TEMP: 75; $$ GAZ063-065-086>088-099>101-113>116-118-119-134>141-150-280700- ...SOUTHEAST GEORGIA... CITY SKY/WX TMP DP RH WIND PRES REMARKS SAVANNAH ARPT FAIR 75 72 90 NE7 30.04S 6HR MIN TEMP: 75; 6HR MAX TEMP: 78; HUNTER AAF FAIR 75 74 98 N2 30.01S 6HR MIN TEMP: 74; 6HR MAX TEMP: 78; FORT STEWART FAIR 74 72 92 NE6 30.00F 6HR MIN TEMP: 74; 6HR MAX TEMP: 75; STATESBORO FAIR 74 74 100 NE3 30.05S SYLVANIA FAIR 74 74 98 E5 30.06F CLAXTON NOT AVBL ...CSRA...CENTRAL AND FAR SOUTHEAST GEORGIA... CITY SKY/WX TMP DP RH WIND PRES REMARKS THOMSON MOCLDY 75 72 90 E5 30.11F AUGUSTA-BUSH FAIR 73 70 90 E3 30.06F 6HR MIN TEMP: 70; 6HR MAX TEMP: 80; AUGUSTA-DANIEL FAIR 76 70 82 E8 30.08F SWAINSBORO FAIR N/A N/A N/A E6 30.06S VIDALIA MOCLDY 73 72 94 NE3 30.04F EASTMAN FAIR 75 75 100 E7 30.05F HAZLEHURST FAIR 75 75 99 NE3 30.02F ALMA FAIR 73 71 93 CALM 30.02S 6HR MIN TEMP: 73; 6HR MAX TEMP: 81; WAYCROSS FAIR 76 75 99 CALM 30.01S JESUP FAIR 77 75 94 CALM 30.01F BAXLEY FAIR 75 73 94 NE3 30.02S BRUNSWICK FAIR 73 72 94 CALM 30.01S SAINT SIMONS FAIR 81 73 76 E8 30.01R 6HR MIN TEMP: 79; 6HR MAX TEMP: 82; $$ SCZ027-028-034-036>038-045-046-048>050-GAZ119-141-280700- ...LAKE AND SUPPLEMENTAL COASTAL OBSERVATIONS... STATION/POSITION TIME TEMP WIND PRES WAVE SWELL AIR SEA DIR/SP/G HT/PER HT/PER/DIR (UTC) (F) (DEG/KT/KT) (MB) (FT/S) (FT/S/D) UPR LAKE MARION NOT AVBL WINYAH BAY 0445 74 350/ 4 1017.0 LAKE MURRAY 0500 75 70/ 5/ 11 1018.6R ACE BASIN NERRS NOT AVBL FORT PULASKI 0500 82 85 70/ 12/ 14 1017.2F SAPELO ISLAND 0500 80 90/ 3 1016.0S $$ ANZ835-935-AMZ111-154-330-350-352-354-370-450-454-472-280700- ...C-MAN AND BUOY OBSERVATIONS... STATION/POSITION TIME TEMP WIND PRES WAVE SWELL AIR SEA DIR/SP/G HT/PER HT/PER/DIR (UTC) (F) (DEG/KT/KT) (MB) (FT/S) (FT/S/D) BUOY 41004 0550 82 84 110/ 2/ 4 1016.5F 2/ 9 2/ 9 BUOY 41008 0550 83 85 100/ 12/ 14 1016.4S 3/10 2/120/10 FOLLY BEACH CMAN 0600 75 360/ 9/ 12 1017.4F CAPERS NEARSHORE 0508 79 40/ 14/ 17 1017.5R FRIPP NEARSHORE 0500 81 70/ 10/ 12 1016.9F STATION/POSITION TIME TEMP WIND PRES WAVE SWELL AIR SEA DIR/SP/G HT/PER HT/PER/DIR (UTC) (F) (DEG/KT/KT) (MB) (FT/S) (FT/S/D) 5E ST. MARYS GA 0521 86 N/A 2/ 9 FRYING PAN BUOY 0550 79 81 340/ 6/ 6 1017.4F BUOY 41025 0550 78 83 40/ 12/ 14 1018.3R 4/ 8 3/ 80/ 8 CAPE LOOKOUT NC 0600 76 20/ 10/ 11 1017.8F BUOY 41002 0550 78 83 80/ 4/ 6 1016.4F 3/ 9 3/120/ 9 BUOY 41010 0520 81 85 180/ 10/ 12 1015.9R ST AUGUSTINE FL 0600 77 85 200/ 1/ 2 1016.6S $$

USA.gov is the U.S. government's official web portal to all federal, state and local government web resources and services.